Powrót do katalogu

DELTA 1 DEB

AktywnyPO
NORAD 8678·DEBRIS·🇺🇸 United States

Wystrzelony Jan 22, 1975 z Vandenberg Space Force Base

Loading…

Następne Przeloty (najbliższe 24 godziny)

TLE

ŚwieżeSource: Space-Track

Epoka: Sep 13, 2026, 11:50 UTC

1 08678U 75004F   26256.49367949  .00000055  00000-0  43914-4 0  9992
2 08678  97.6351 236.1437 0173244 245.3222 112.9828 14.10386333651037

Śledź DELTA 1 DEB w czasie rzeczywistym z AllMySat

Download on the App Store